AWE366 KABQ-KPIT

Flight info

Callsign AWE366
Flight time 2h 5m
Altitude 37000
Route LARGO3 ABQ FTI J18 SLN J24 MCI J80 AIR FEWGA7
Aircraft B752/M-SDE2E3FGHIJ3J4J7RWXY/LB1

Departure

Time 2026-05-04 00:58
Airport Albuquerque International Sunport (KABQ)

Arrival

Time 2026-05-04 03:04
Airport Pittsburgh International Airport (KPIT)
Time Latitude Longitude Altitude Speed Heading
2026-05-04 00:31 35.04780 -106.61570 5366 ft 0 kts 179°
2026-05-04 00:46 35.04801 -106.61570 5366 ft 3 kts 179°
2026-05-04 00:46 35.04822 -106.61573 5366 ft 4 kts 144°
2026-05-04 00:46 35.04833 -106.61596 5366 ft 3 kts 91°
2026-05-04 00:47 35.04833 -106.61575 5366 ft 4 kts 91°
2026-05-04 00:47 35.04833 -106.61542 5366 ft 4 kts 91°
2026-05-04 00:47 35.04832 -106.61509 5366 ft 4 kts 91°
2026-05-04 00:47 35.04832 -106.61476 5366 ft 4 kts 91°
2026-05-04 00:48 35.04832 -106.61443 5366 ft 4 kts 91°
2026-05-04 00:48 35.04832 -106.61410 5366 ft 4 kts 91°
2026-05-04 00:48 35.04831 -106.61388 5366 ft 0 kts 91°
2026-05-04 00:50 35.04831 -106.61387 5366 ft 1 kts 91°
2026-05-04 00:50 35.04831 -106.61370 5366 ft 4 kts 91°
2026-05-04 00:50 35.04831 -106.61328 5366 ft 6 kts 90°
2026-05-04 00:51 35.04801 -106.61297 5366 ft 7 kts 182°
2026-05-04 00:51 35.04746 -106.61302 5366 ft 9 kts 184°
2026-05-04 00:51 35.04675 -106.61307 5366 ft 11 kts 184°
2026-05-04 00:51 35.04594 -106.61325 5366 ft 12 kts 222°
2026-05-04 00:52 35.04548 -106.61420 5366 ft 14 kts 262°
2026-05-04 00:52 35.04549 -106.61550 5366 ft 16 kts 270°
2026-05-04 00:52 35.04550 -106.61699 5366 ft 19 kts 271°
2026-05-04 00:52 35.04551 -106.61866 5366 ft 21 kts 270°
2026-05-04 00:53 35.04555 -106.62028 5366 ft 12 kts 273°
2026-05-04 00:53 35.04554 -106.62082 5366 ft 1 kts 261°
2026-05-04 00:53 35.04548 -106.62103 5366 ft 9 kts 241°
2026-05-04 00:53 35.04505 -106.62130 5366 ft 11 kts 186°
2026-05-04 00:54 35.04439 -106.62123 5366 ft 6 kts 136°
2026-05-04 00:54 35.04433 -106.62100 5366 ft 0 kts 90°
2026-05-04 00:57 35.04433 -106.62011 5366 ft 33 kts 90°
2026-05-04 00:57 35.04429 -106.61510 5366 ft 84 kts 89°
2026-05-04 00:57 35.04425 -106.60605 5366 ft 128 kts 91°
2026-05-04 00:57 35.04415 -106.59355 5375 ft 164 kts 90°
2026-05-04 00:58 35.04438 -106.57901 5566 ft 182 kts 86°
2026-05-04 00:58 35.04913 -106.56406 5869 ft 202 kts 53°
2026-05-04 00:58 35.06098 -106.55373 6179 ft 222 kts 20°
2026-05-04 00:58 35.07689 -106.55230 6472 ft 242 kts 349°
2026-05-04 00:59 35.09252 -106.56093 6834 ft 253 kts 324°
2026-05-04 00:59 35.10671 -106.57454 7216 ft 266 kts 319°
2026-05-04 00:59 35.12119 -106.58953 7565 ft 279 kts 318°
2026-05-04 00:59 35.13617 -106.60518 8038 ft 286 kts 318°
2026-05-04 01:00 35.15140 -106.62111 8613 ft 289 kts 318°
2026-05-04 01:00 35.16670 -106.63706 9212 ft 290 kts 318°
2026-05-04 01:00 35.18215 -106.65309 9865 ft 291 kts 318°
2026-05-04 01:00 35.19790 -106.66928 10309 ft 303 kts 318°
2026-05-04 01:01 35.21437 -106.68617 10654 ft 316 kts 318°
2026-05-04 01:01 35.23159 -106.70376 10996 ft 329 kts 318°
2026-05-04 01:01 35.24956 -106.72207 11359 ft 343 kts 318°
2026-05-04 01:01 35.26828 -106.74111 11707 ft 356 kts 318°
2026-05-04 01:02 35.28757 -106.76068 12243 ft 363 kts 318°
2026-05-04 01:02 35.30717 -106.78049 12948 ft 366 kts 318°
2026-05-04 01:02 35.32687 -106.80036 13700 ft 368 kts 318°
2026-05-04 01:02 35.34675 -106.82041 14444 ft 371 kts 318°
2026-05-04 01:03 35.36674 -106.84054 15183 ft 373 kts 318°
2026-05-04 01:03 35.38686 -106.86080 15909 ft 376 kts 318°
2026-05-04 01:03 35.40715 -106.88119 16668 ft 378 kts 318°
2026-05-04 01:03 35.42765 -106.90172 17389 ft 381 kts 318°
2026-05-04 01:04 35.44830 -106.92235 18091 ft 384 kts 318°
2026-05-04 01:04 35.46885 -106.94275 18776 ft 386 kts 318°
2026-05-04 01:04 35.49063 -106.96247 19440 ft 392 kts 327°
2026-05-04 01:04 35.51630 -106.97411 20209 ft 399 kts 344°
2026-05-04 01:05 35.54432 -106.97550 20860 ft 411 kts
2026-05-04 01:05 35.57226 -106.96617 21429 ft 424 kts 19°
2026-05-04 01:05 35.59751 -106.94657 21944 ft 437 kts 36°
2026-05-04 01:05 35.61779 -106.91813 22404 ft 449 kts 53°
2026-05-04 01:06 35.63360 -106.88450 22792 ft 459 kts 59°
2026-05-04 01:06 35.64308 -106.86115 23040 ft 464 kts 61°
2026-05-04 01:06 35.65695 -106.82500 23469 ft 470 kts 62°
2026-05-04 01:06 35.67064 -106.78830 23927 ft 474 kts 63°
2026-05-04 01:07 35.68435 -106.75123 24372 ft 478 kts 63°
2026-05-04 01:07 35.69814 -106.71378 24796 ft 483 kts 62°
2026-05-04 01:07 35.71204 -106.67594 25195 ft 487 kts 62°
2026-05-04 01:07 35.72603 -106.63780 25597 ft 492 kts 62°
2026-05-04 01:08 35.74017 -106.59923 25985 ft 496 kts 62°
2026-05-04 01:08 35.75438 -106.56038 26366 ft 500 kts 62°
2026-05-04 01:08 35.76875 -106.52108 26740 ft 505 kts 62°
2026-05-04 01:08 35.78322 -106.48145 27097 ft 509 kts 62°
2026-05-04 01:09 35.79778 -106.44152 27442 ft 513 kts 62°
2026-05-04 01:09 35.81243 -106.40130 27791 ft 517 kts 62°
2026-05-04 01:09 35.82702 -106.36120 28137 ft 521 kts 62°
2026-05-04 01:09 35.84206 -106.31980 28471 ft 525 kts 62°
2026-05-04 01:10 35.85685 -106.27904 28786 ft 529 kts 62°
2026-05-04 01:10 35.87192 -106.23746 29037 ft 535 kts 62°
2026-05-04 01:10 35.88717 -106.19534 29336 ft 539 kts 62°
2026-05-04 01:10 35.90244 -106.15312 29709 ft 541 kts 62°
2026-05-04 01:11 35.91775 -106.11066 30099 ft 542 kts 62°
2026-05-04 01:11 35.93308 -106.06807 30510 ft 543 kts 62°
2026-05-04 01:11 35.94839 -106.02545 30954 ft 542 kts 61°
2026-05-04 01:11 35.96364 -105.98295 31395 ft 542 kts 61°
2026-05-04 01:12 35.97886 -105.94046 31830 ft 541 kts 61°
2026-05-04 01:12 35.99403 -105.89801 32255 ft 540 kts 60°
2026-05-04 01:12 36.00918 -105.85557 32663 ft 539 kts 60°
2026-05-04 01:12 36.02430 -105.81316 33062 ft 539 kts 60°
2026-05-04 01:13 36.03938 -105.77080 33456 ft 538 kts 60°
2026-05-04 01:13 36.05439 -105.72855 33851 ft 537 kts 60°
2026-05-04 01:13 36.06938 -105.68633 34226 ft 536 kts 59°
2026-05-04 01:13 36.08435 -105.64413 34574 ft 535 kts 60°
2026-05-04 01:14 36.09931 -105.60192 34899 ft 535 kts 60°
2026-05-04 01:14 36.11421 -105.55981 35194 ft 535 kts 60°
2026-05-04 01:14 36.12912 -105.51766 35487 ft 535 kts 60°
2026-05-04 01:14 36.14402 -105.47545 35777 ft 535 kts 60°
2026-05-04 01:15 36.15888 -105.43330 36050 ft 535 kts 60°
2026-05-04 01:15 36.17375 -105.39107 36326 ft 535 kts 60°
2026-05-04 01:15 36.18860 -105.34885 36602 ft 535 kts 60°
2026-05-04 01:15 36.20343 -105.30660 36857 ft 535 kts 61°
2026-05-04 01:16 36.21808 -105.26482 37063 ft 535 kts 61°
2026-05-04 01:16 36.24792 -105.17957 37141 ft 535 kts 61°
2026-05-04 01:17 36.27744 -105.09494 37138 ft 535 kts 61°
2026-05-04 01:17 36.30689 -105.01027 37132 ft 535 kts 61°
2026-05-04 01:18 36.33607 -104.92615 37119 ft 534 kts 61°
2026-05-04 01:18 36.36532 -104.84156 37102 ft 534 kts 61°
2026-05-04 01:19 36.39451 -104.75694 37078 ft 533 kts 61°
2026-05-04 01:19 36.42365 -104.67222 37056 ft 533 kts 61°
2026-05-04 01:20 36.45272 -104.58746 37039 ft 533 kts 61°
2026-05-04 01:20 36.48174 -104.50262 37020 ft 533 kts 61°
2026-05-04 01:21 36.51072 -104.41767 36999 ft 533 kts 61°
2026-05-04 01:21 36.53965 -104.33260 36990 ft 534 kts 61°
2026-05-04 01:22 36.56850 -104.24751 36988 ft 534 kts 61°
2026-05-04 01:22 36.59730 -104.16236 36988 ft 534 kts 62°
2026-05-04 01:23 36.62601 -104.07721 36988 ft 534 kts 62°
2026-05-04 01:23 36.65469 -103.99189 36986 ft 534 kts 62°
2026-05-04 01:24 36.68309 -103.90716 36983 ft 532 kts 62°
2026-05-04 01:24 36.71169 -103.82154 36978 ft 531 kts 62°
2026-05-04 01:25 36.74000 -103.73655 36973 ft 530 kts 62°
2026-05-04 01:25 36.76821 -103.65164 36951 ft 530 kts 62°
2026-05-04 01:26 36.79632 -103.56680 36945 ft 529 kts 62°
2026-05-04 01:26 36.82436 -103.48189 36943 ft 528 kts 62°
2026-05-04 01:27 36.85227 -103.39714 36940 ft 527 kts 62°
2026-05-04 01:27 36.88008 -103.31246 36937 ft 527 kts 62°
2026-05-04 01:28 36.90766 -103.22822 36935 ft 526 kts 62°
2026-05-04 01:28 36.93528 -103.14362 36927 ft 525 kts 62°
2026-05-04 01:29 36.96280 -103.05904 36915 ft 525 kts 62°
2026-05-04 01:29 36.99024 -102.97452 36908 ft 524 kts 62°
2026-05-04 01:30 37.01763 -102.88986 36901 ft 524 kts 62°
2026-05-04 01:30 37.04489 -102.80538 36891 ft 523 kts 62°
2026-05-04 01:31 37.07202 -102.72103 36887 ft 522 kts 62°
2026-05-04 01:31 37.09910 -102.63662 36884 ft 522 kts 62°
2026-05-04 01:32 37.12606 -102.55228 36880 ft 521 kts 62°
2026-05-04 01:32 37.15293 -102.46801 36879 ft 520 kts 62°
2026-05-04 01:33 37.17967 -102.38390 36878 ft 519 kts 63°
2026-05-04 01:33 37.20634 -102.29977 36878 ft 518 kts 63°
2026-05-04 01:34 37.23282 -102.21593 36875 ft 517 kts 63°
2026-05-04 01:34 37.25925 -102.13205 36873 ft 516 kts 63°
2026-05-04 01:35 37.28555 -102.04834 36869 ft 515 kts 63°
2026-05-04 01:35 37.31176 -101.96466 36866 ft 514 kts 63°
2026-05-04 01:36 37.33791 -101.88090 36860 ft 513 kts 63°
2026-05-04 01:36 37.36377 -101.79783 36847 ft 513 kts 63°
2026-05-04 01:37 37.38973 -101.71422 36839 ft 513 kts 63°
2026-05-04 01:37 37.41561 -101.63063 36828 ft 513 kts 63°
2026-05-04 01:38 37.44146 -101.54685 36823 ft 513 kts 63°
2026-05-04 01:38 37.46726 -101.46301 36817 ft 513 kts 63°
2026-05-04 01:39 37.49279 -101.37975 36810 ft 513 kts 64°
2026-05-04 01:39 37.51842 -101.29596 36804 ft 514 kts 63°
2026-05-04 01:40 37.54408 -101.21181 36804 ft 514 kts 64°
2026-05-04 01:40 37.56969 -101.12754 36804 ft 514 kts 64°
2026-05-04 01:41 37.59519 -101.04340 36807 ft 514 kts 64°
2026-05-04 01:41 37.62068 -100.95903 36815 ft 515 kts 64°
2026-05-04 01:42 37.64614 -100.87451 36819 ft 515 kts 64°
2026-05-04 01:42 37.67153 -100.78994 36818 ft 515 kts 64°
2026-05-04 01:43 37.69685 -100.70535 36817 ft 514 kts 64°
2026-05-04 01:43 37.72207 -100.62080 36810 ft 515 kts 64°
2026-05-04 01:44 37.74709 -100.53672 36809 ft 514 kts 65°
2026-05-04 01:44 37.77235 -100.45152 36812 ft 515 kts 65°
2026-05-04 01:45 37.79723 -100.36733 36810 ft 514 kts 65°
2026-05-04 01:45 37.83467 -100.24020 36809 ft 514 kts 65°
2026-05-04 01:46 37.85952 -100.15541 36808 ft 513 kts 65°
2026-05-04 01:46 37.88428 -100.07071 36809 ft 513 kts 65°
2026-05-04 01:47 37.90897 -99.98595 36808 ft 513 kts 65°
2026-05-04 01:47 37.93362 -99.90109 36809 ft 513 kts 65°
2026-05-04 01:48 37.95818 -99.81627 36808 ft 513 kts 65°
2026-05-04 01:48 37.98268 -99.73134 36807 ft 513 kts 65°
2026-05-04 01:49 38.00302 -99.66065 36805 ft 514 kts 65°
2026-05-04 01:49 38.02745 -99.57548 36803 ft 513 kts 65°
2026-05-04 01:50 38.05177 -99.49039 36799 ft 512 kts 65°
2026-05-04 01:50 38.07599 -99.40540 36795 ft 512 kts 65°
2026-05-04 01:51 38.10014 -99.32038 36790 ft 511 kts 65°
2026-05-04 01:51 38.12418 -99.23545 36786 ft 511 kts 65°
2026-05-04 01:52 38.14819 -99.15035 36782 ft 511 kts 65°
2026-05-04 01:52 38.17192 -99.06598 36780 ft 509 kts 65°
2026-05-04 01:53 38.19568 -98.98120 36780 ft 509 kts 65°
2026-05-04 01:53 38.21935 -98.89646 36786 ft 509 kts 65°
2026-05-04 01:54 38.24296 -98.81170 36792 ft 508 kts 65°
2026-05-04 01:54 38.26651 -98.72685 36795 ft 508 kts 65°
2026-05-04 01:55 38.28998 -98.64200 36795 ft 507 kts 65°
2026-05-04 01:55 38.31335 -98.55724 36797 ft 507 kts 65°
2026-05-04 01:56 38.33667 -98.47241 36797 ft 507 kts 65°
2026-05-04 01:56 38.35991 -98.38756 36798 ft 507 kts 65°
2026-05-04 01:57 38.38310 -98.30262 36800 ft 507 kts 65°
2026-05-04 01:57 38.40605 -98.21826 36799 ft 507 kts 65°
2026-05-04 01:58 38.42907 -98.13336 36799 ft 507 kts 65°
2026-05-04 01:58 38.45203 -98.04838 36799 ft 507 kts 66°
2026-05-04 01:59 38.47495 -97.96329 36799 ft 507 kts 66°
2026-05-04 01:59 38.49781 -97.87814 36800 ft 507 kts 66°
2026-05-04 02:00 38.52065 -97.79276 36798 ft 507 kts 66°
2026-05-04 02:00 38.54337 -97.70752 36798 ft 507 kts 66°
2026-05-04 02:01 38.56600 -97.62232 36798 ft 506 kts 66°
2026-05-04 02:01 38.67929 -97.19236 36806 ft 506 kts 66°
2026-05-04 02:02 39.02543 -95.82738 36823 ft 506 kts 66°
2026-05-04 02:02 39.29284 -94.70159 36819 ft 515 kts 72°
2026-05-04 02:03 39.31463 -94.51763 36841 ft 515 kts 76°
2026-05-04 02:03 39.36243 -94.14408 36848 ft 515 kts 75°
2026-05-04 02:04 39.53829 -92.68196 36883 ft 514 kts 76°
2026-05-04 02:04 39.69616 -91.21104 36867 ft 514 kts 77°
2026-05-04 02:05 39.83389 -89.74640 36888 ft 512 kts 78°
2026-05-04 02:05 39.84223 -89.56236 36882 ft 516 kts 86°
2026-05-04 02:06 39.84268 -88.58982 36871 ft 516 kts 87°
2026-05-04 02:06 39.84182 -88.49735 36891 ft 518 kts 87°
2026-05-04 02:07 39.84125 -88.40377 36896 ft 517 kts 87°
2026-05-04 02:07 39.84083 -88.31016 36895 ft 517 kts 87°
2026-05-04 02:08 39.84035 -88.21654 36893 ft 516 kts 87°
2026-05-04 02:08 39.83977 -88.12320 36893 ft 516 kts 87°
2026-05-04 02:09 39.83911 -88.02980 36897 ft 516 kts 87°
2026-05-04 02:09 39.83837 -87.93644 36897 ft 516 kts 87°
2026-05-04 02:10 39.83756 -87.84308 36901 ft 515 kts 87°
2026-05-04 02:10 39.83667 -87.74978 36904 ft 517 kts 87°
2026-05-04 02:11 39.83571 -87.65619 36905 ft 517 kts 87°
2026-05-04 02:11 39.83468 -87.56334 36906 ft 516 kts 88°
2026-05-04 02:12 39.83356 -87.46972 36909 ft 517 kts 88°
2026-05-04 02:12 39.83237 -87.37616 36908 ft 516 kts 88°
2026-05-04 02:13 39.83110 -87.28231 36911 ft 515 kts 88°
2026-05-04 02:13 39.82977 -87.18909 36918 ft 515 kts 88°
2026-05-04 02:14 39.82837 -87.09629 36921 ft 516 kts 88°
2026-05-04 02:14 39.82688 -87.00300 36921 ft 516 kts 88°
2026-05-04 02:15 39.82532 -86.90970 36924 ft 516 kts 88°
2026-05-04 02:15 39.82368 -86.81645 36924 ft 515 kts 89°
2026-05-04 02:16 39.82198 -86.72316 36929 ft 516 kts 89°
2026-05-04 02:16 39.82019 -86.62968 36933 ft 516 kts 89°
2026-05-04 02:17 39.81834 -86.53679 36936 ft 516 kts 89°
2026-05-04 02:17 39.81640 -86.44348 36936 ft 516 kts 89°
2026-05-04 02:18 39.81515 -86.35003 36933 ft 515 kts 86°
2026-05-04 02:18 39.81830 -86.27656 36932 ft 514 kts 82°
2026-05-04 02:19 39.81961 -86.25673 36930 ft 514 kts 82°
2026-05-04 02:19 39.82632 -86.16420 36932 ft 513 kts 82°
2026-05-04 02:20 39.83243 -86.07165 36938 ft 514 kts 82°
2026-05-04 02:20 39.83781 -85.97891 36941 ft 514 kts 83°
2026-05-04 02:21 39.84295 -85.88606 36940 ft 514 kts 83°
2026-05-04 02:21 39.84809 -85.79323 36940 ft 514 kts 83°
2026-05-04 02:22 39.85321 -85.70035 36940 ft 514 kts 83°
2026-05-04 02:22 39.85826 -85.60754 36940 ft 514 kts 83°
2026-05-04 02:23 39.86321 -85.51516 36949 ft 514 kts 83°
2026-05-04 02:23 39.86814 -85.42170 36954 ft 515 kts 83°
2026-05-04 02:24 39.87293 -85.32929 36958 ft 515 kts 83°
2026-05-04 02:24 39.87769 -85.23630 36959 ft 515 kts 83°
2026-05-04 02:25 39.88236 -85.14326 36960 ft 515 kts 83°
2026-05-04 02:25 39.88697 -85.05018 36964 ft 515 kts 84°
2026-05-04 02:26 39.89151 -84.95700 36972 ft 516 kts 84°
2026-05-04 02:26 39.89596 -84.86390 36979 ft 516 kts 84°
2026-05-04 02:27 39.90036 -84.77057 36983 ft 516 kts 84°
2026-05-04 02:27 39.90468 -84.67726 36985 ft 517 kts 84°
2026-05-04 02:28 39.90893 -84.58378 36984 ft 517 kts 84°
2026-05-04 02:28 39.91309 -84.49034 36985 ft 517 kts 84°
2026-05-04 02:29 39.91718 -84.39683 36989 ft 517 kts 84°
2026-05-04 02:29 39.92120 -84.30329 36994 ft 517 kts 84°
2026-05-04 02:30 39.92514 -84.20968 36999 ft 517 kts 84°
2026-05-04 02:30 39.92901 -84.11616 36998 ft 517 kts 85°
2026-05-04 02:31 39.93279 -84.02305 36995 ft 517 kts 85°
2026-05-04 02:31 39.93651 -83.92948 36992 ft 517 kts 85°
2026-05-04 02:32 39.94016 -83.83583 36994 ft 517 kts 85°
2026-05-04 02:32 39.94373 -83.74222 36999 ft 517 kts 85°
2026-05-04 02:33 39.94664 -83.66440 37003 ft 517 kts 85°
2026-05-04 02:33 39.95008 -83.57069 37010 ft 518 kts 85°
2026-05-04 02:34 39.95344 -83.47697 37015 ft 518 kts 85°
2026-05-04 02:34 39.95672 -83.38312 37018 ft 518 kts 85°
2026-05-04 02:35 39.95993 -83.28944 37017 ft 518 kts 85°
2026-05-04 02:35 39.96306 -83.19567 37015 ft 518 kts 86°
2026-05-04 02:36 39.96531 -83.10166 37016 ft 518 kts 87°
2026-05-04 02:36 39.96694 -83.00762 37017 ft 519 kts 86°
2026-05-04 02:37 39.96814 -82.96073 36882 ft 518 kts 86°
2026-05-04 02:37 39.96958 -82.91386 36641 ft 517 kts 85°
2026-05-04 02:37 39.97114 -82.86708 36394 ft 516 kts 85°
2026-05-04 02:37 39.97271 -82.82036 36145 ft 516 kts 85°
2026-05-04 02:38 39.97424 -82.77366 35897 ft 516 kts 85°
2026-05-04 02:38 39.97569 -82.72734 35650 ft 516 kts 85°
2026-05-04 02:38 39.97713 -82.67996 35399 ft 517 kts 85°
2026-05-04 02:38 39.97849 -82.63319 35150 ft 517 kts 85°
2026-05-04 02:39 39.97984 -82.58628 34902 ft 517 kts 85°
2026-05-04 02:39 39.98116 -82.53944 34654 ft 518 kts 85°
2026-05-04 02:39 39.98247 -82.49251 34404 ft 518 kts 85°
2026-05-04 02:39 39.98376 -82.44555 34157 ft 518 kts 85°
2026-05-04 02:40 39.98504 -82.39864 33908 ft 518 kts 85°
2026-05-04 02:40 39.98630 -82.35168 33659 ft 518 kts 85°
2026-05-04 02:40 39.98755 -82.30482 33410 ft 518 kts 85°
2026-05-04 02:40 39.98878 -82.25789 33161 ft 519 kts 85°
2026-05-04 02:41 39.98999 -82.21071 32912 ft 520 kts 85°
2026-05-04 02:41 39.99118 -82.16350 32663 ft 520 kts 85°
2026-05-04 02:41 39.99236 -82.11640 32383 ft 521 kts 85°
2026-05-04 02:41 39.99351 -82.06906 32086 ft 521 kts 85°
2026-05-04 02:42 39.99465 -82.02161 31724 ft 524 kts 85°
2026-05-04 02:42 39.99580 -81.97381 31075 ft 530 kts 85°
2026-05-04 02:42 39.99693 -81.92544 30147 ft 536 kts 86°
2026-05-04 02:42 39.99804 -81.87736 29232 ft 538 kts 86°
2026-05-04 02:43 39.99912 -81.82874 28557 ft 536 kts 86°
2026-05-04 02:43 40.00017 -81.78009 27800 ft 536 kts 86°
2026-05-04 02:43 40.00119 -81.73186 27039 ft 526 kts 86°
2026-05-04 02:43 40.00216 -81.68492 26356 ft 512 kts 86°
2026-05-04 02:44 40.00310 -81.63860 25647 ft 508 kts 86°
2026-05-04 02:44 40.00403 -81.59277 24940 ft 502 kts 87°
2026-05-04 02:44 40.00494 -81.54751 24245 ft 496 kts 87°
2026-05-04 02:44 40.00584 -81.50284 23556 ft 491 kts 87°
2026-05-04 02:45 40.00673 -81.45857 22881 ft 484 kts 87°
2026-05-04 02:45 40.00760 -81.41488 22212 ft 478 kts 86°
2026-05-04 02:45 40.00846 -81.37188 21554 ft 472 kts 86°
2026-05-04 02:45 40.00928 -81.32940 20904 ft 465 kts 86°
2026-05-04 02:46 40.01007 -81.28758 20260 ft 458 kts 86°
2026-05-04 02:46 40.01084 -81.24622 19621 ft 452 kts 86°
2026-05-04 02:46 40.01155 -81.20615 18844 ft 449 kts 86°
2026-05-04 02:46 40.01221 -81.16488 17801 ft 440 kts 86°
2026-05-04 02:47 40.01279 -81.12547 17007 ft 431 kts 87°
2026-05-04 02:47 40.01335 -81.08733 16589 ft 421 kts 87°
2026-05-04 02:47 40.01389 -81.04961 16112 ft 413 kts 87°
2026-05-04 02:47 40.01443 -81.01227 15502 ft 409 kts 87°
2026-05-04 02:48 40.01495 -80.97549 14946 ft 404 kts 88°
2026-05-04 02:48 40.01546 -80.93900 14389 ft 400 kts 88°
2026-05-04 02:48 40.01594 -80.90281 13835 ft 397 kts 88°
2026-05-04 02:48 40.01642 -80.86699 13289 ft 393 kts 88°
2026-05-04 02:49 40.02021 -80.83195 12866 ft 387 kts 72°
2026-05-04 02:49 40.03141 -80.80027 12582 ft 383 kts 54°
2026-05-04 02:49 40.04813 -80.77358 12254 ft 378 kts 43°
2026-05-04 02:49 40.06695 -80.75046 11685 ft 374 kts 39°
2026-05-04 02:50 40.08618 -80.72792 11257 ft 367 kts 39°
2026-05-04 02:50 40.10496 -80.70595 10942 ft 359 kts 39°
2026-05-04 02:50 40.12384 -80.68400 10588 ft 367 kts 39°
2026-05-04 02:50 40.14282 -80.66206 10147 ft 351 kts 39°
2026-05-04 02:51 40.16023 -80.64197 10010 ft 319 kts 39°
2026-05-04 02:51 40.17645 -80.62323 10021 ft 304 kts 39°
2026-05-04 02:51 40.19196 -80.60526 10009 ft 294 kts 39°
2026-05-04 02:51 40.20501 -80.58486 9995 ft 294 kts 56°
2026-05-04 02:52 40.21603 -80.56214 10018 ft 296 kts 54°
2026-05-04 02:52 40.22881 -80.54100 10013 ft 296 kts 46°
2026-05-04 02:52 40.24322 -80.52164 10014 ft 298 kts 41°
2026-05-04 02:52 40.25817 -80.50268 10011 ft 300 kts 42°
2026-05-04 02:53 40.27138 -80.48156 10003 ft 301 kts 55°
2026-05-04 02:53 40.28160 -80.45748 10013 ft 303 kts 63°
2026-05-04 02:53 40.29058 -80.43246 10012 ft 303 kts 64°
2026-05-04 02:53 40.29969 -80.40755 10011 ft 303 kts 63°
2026-05-04 02:54 40.30923 -80.38300 10011 ft 303 kts 61°
2026-05-04 02:54 40.31906 -80.35849 10011 ft 303 kts 61°
2026-05-04 02:54 40.32884 -80.33407 10013 ft 303 kts 61°
2026-05-04 02:54 40.33856 -80.30959 10011 ft 302 kts 61°
2026-05-04 02:55 40.35773 -80.26086 10009 ft 302 kts 62°
2026-05-04 02:55 40.36744 -80.23608 10008 ft 302 kts 62°
2026-05-04 02:55 40.37700 -80.21175 10008 ft 303 kts 62°
2026-05-04 02:56 40.38669 -80.18724 10007 ft 303 kts 61°
2026-05-04 02:56 40.39610 -80.16242 9996 ft 304 kts 66°
2026-05-04 02:56 40.40114 -80.13586 9855 ft 299 kts 85°
2026-05-04 02:56 40.40117 -80.10879 9278 ft 293 kts 96°
2026-05-04 02:57 40.39912 -80.08198 8676 ft 297 kts 98°
2026-05-04 02:57 40.39733 -80.05508 8395 ft 294 kts 96°
2026-05-04 02:57 40.39636 -80.02874 7703 ft 289 kts 94°
2026-05-04 02:57 40.39583 -80.00247 6953 ft 286 kts 93°
2026-05-04 02:58 40.39747 -79.97666 6201 ft 284 kts 74°
2026-05-04 02:58 40.40659 -79.95417 5447 ft 279 kts 47°
2026-05-04 02:58 40.42184 -79.93922 4664 ft 272 kts 20°
2026-05-04 02:58 40.43987 -79.93400 4292 ft 265 kts
2026-05-04 02:59 40.45780 -79.93712 4052 ft 255 kts 335°
2026-05-04 02:59 40.47168 -79.95029 4018 ft 243 kts 308°
2026-05-04 02:59 40.48029 -79.96899 3995 ft 238 kts 286°
2026-05-04 02:59 40.48174 -79.98983 4027 ft 223 kts 268°
2026-05-04 03:00 40.48144 -80.00979 3956 ft 214 kts 268°
2026-05-04 03:00 40.48147 -80.02908 3797 ft 210 kts 269°
2026-05-04 03:00 40.48170 -80.04793 3583 ft 208 kts 270°
2026-05-04 03:00 40.48205 -80.06697 3344 ft 205 kts 270°
2026-05-04 03:01 40.48246 -80.08546 3081 ft 200 kts 271°
2026-05-04 03:01 40.48288 -80.10305 2843 ft 181 kts 271°
2026-05-04 03:01 40.48326 -80.11825 2585 ft 156 kts 271°
2026-05-04 03:01 40.48359 -80.13126 2371 ft 132 kts 271°
2026-05-04 03:02 40.48389 -80.14326 2211 ft 132 kts 270°
2026-05-04 03:02 40.48421 -80.15538 2085 ft 133 kts 270°
2026-05-04 03:02 40.48453 -80.16757 1897 ft 133 kts 270°
2026-05-04 03:02 40.48486 -80.17968 1718 ft 132 kts 271°
2026-05-04 03:03 40.48519 -80.19175 1548 ft 132 kts 271°
2026-05-04 03:03 40.48550 -80.20382 1371 ft 132 kts 270°
2026-05-04 03:03 40.48583 -80.21574 1215 ft 126 kts 268°
2026-05-04 03:03 40.48601 -80.22513 1214 ft 81 kts 270°
2026-05-04 03:04 40.48620 -80.23160 1214 ft 61 kts 271°
2026-05-04 03:04 40.48637 -80.23634 1214 ft 39 kts 289°
2026-05-04 03:04 40.48721 -80.23823 1214 ft 12 kts 301°
2026-05-04 03:04 40.48742 -80.23865 1214 ft 0 kts 304°
2026-05-04 03:05 40.48743 -80.23867 1214 ft 2 kts 304°
2026-05-04 03:05 40.48776 -80.23931 1214 ft 16 kts 303°
2026-05-04 03:05 40.48869 -80.23998 1214 ft 14 kts
2026-05-04 03:05 40.48992 -80.23996 1214 ft 20 kts
2026-05-04 03:06 40.49145 -80.23986 1214 ft 15 kts
2026-05-04 03:06 40.49208 -80.24034 1214 ft 13 kts 273°
2026-05-04 03:06 40.49208 -80.24186 1214 ft 20 kts 268°
2026-05-04 03:06 40.49213 -80.24360 1214 ft 16 kts 291°
2026-05-04 03:07 40.49298 -80.24483 1214 ft 19 kts 316°
2026-05-04 03:07 40.49390 -80.24569 1214 ft 9 kts
2026-05-04 03:07 40.49428 -80.24536 1214 ft 3 kts 47°
2026-05-04 03:07 40.49431 -80.24532 1214 ft 0 kts 47°
2026-05-04 03:09 40.49446 -80.24510 1214 ft 0 kts 47°